Cloud_Cover
100 100 100 97 100 34 92 36 100 100 100 100 100 100 100 58 61 70 70 92 100 32 6 83 77 81 80 29 88 100 100 100 100 100 100 100 100 100 100 100 100 100 100
100 100 100 100 100 86 100 53 44 100 100 100 100 100 59 75 78 98 20 5 59 21 8 91 83 92 100 100 100 100 100 100 100 100 99 100 100 100 100 100 100 88 63
100 100 100 99 98 87 81 100 100 96 100 100 92 89 90 39 73 5 12 93 30 94 100 100 100 100 100 100 100 100 100 100 97 56 99 100 100 100 100 93 11 31 5
100 100 100 100 98 90 100 72 100 91 81 79 99 74 87 58 66 93 68 98 100 100 100 100 100 100 100 100 100 100 100 100 100 100 100 100 100 100 64 6 32 5 4
100 100 100 96 86 100 100 100 100 86 78 92 75 99 18 81 99 84 100 100 100 100 100 100 100 100 100 100 100 100 100 100 100 100 100 50 92 90 96 7 5 5 5
100 100 96 100 100 100 100 100 90 78 92 81 87 75 67 91 100 100 95 96 100 100 100 100 100 100 100 100 100 100 100 100 27 6 70 90 69 89 14 5 5 5 3
100 100 100 100 100 100 100 100 97 84 71 92 97 96 88 100 100 100 100 100 100 100 100 100 100 100 100 100 100 47 28 46 49 23 10 23 5 5 6 6 5 50 91
100 100 100 100 100 75 100 100 100 100 100 99 100 97 100 100 100 100 100 100 100 100 100 100 100 100 100 94 95 100 86 97 82 88 38 42 3 2 5 2 2 85 100
100 100 100 100 100 100 98 100 100 93 93 100 100 100 100 100 100 100 100 100 100 100 100 100 100 86 96 66 100 97 97 6 5 12 8 23 67 77 99 100 100 75 5
100 100 100 100 100 100 100 100 100 99 100 100 100 100 100 100 100 100 100 100 100 100 100 76 41 81 100 100 88 40 7 42 5 5 5 6 47 7 43 38 95 93 100
100 100 100 100 100 100 100 100 100 100 100 100 100 100 100 100 100 100 94 100 95 100 71 65 88 100 98 37 48 100 100 100 65 5 5 5 7 47 9 10 5 10 28
100 100 100 100 100 100 100 100 100 100 100 100 100 100 100 100 100 100 98 100 100 100 96 98 100 100 98 87 96 100 100 100 52 14 58 18 100 100 100 99 100 91 8
100 100 100 100 100 100 100 100 100 100 100 100 100 100 100 100 100 100 97 98 100 100 91 85 25 95 100 100 100 85 100 100 98 85 100 57 28 74 100 100 100 90 100
100 100 100 100 100 100 100 100 100 100 100 100 100 100 100 100 100 100 100 100 100 100 44 96 88 100 100 100 93 100 93 100 22 86 93 7 100 100 93 86 100 100 100
100 100 100 100 100 100 100 100 100 100 100 100 100 96 81 42 96 100 100 100 100 100 100 100 100 100 100 100 97 16 73 53 11 5 5 20 99 100 100 100 100 100 100
100 100 100 100 100 100 100 100 100 100 96 98 46 100 87 98 100 100 100 100 100 100 100 100 100 100 100 100 66 16 8 81 21 10 100 100 100 100 100 100 94 88 22
100 100 100 100 100 100 100 86 22 90 96 94 100 100 100 100 99 100 100 100 100 100 100 100 100 100 100 100 79 96 73 51 77 100 100 93 100 100 100 100 68 9 5
100 59 99 30 27 7 9 21 86 88 100 100 100 100 100 99 100 100 100 100 100 100 100 100 100 100 100 100 100 100 100 100 100 100 100 100 69 90 100 26 13 97 100
15 20 13 15 5 5 55 7 9 37 94 99 100 100 98 100 100 100 100 100 100 100 100 100 100 100 100 99 100 100 100 100 100 100 100 100 100 96 100 100 100 61 15
50 12 5 5 5 5 5 27 85 87 100 95 92 86 93 100 100 100 100 100 100 100 100 100 100 100 100 100 100 100 100 100 100 100 100 100 100 100 100 100 100 99 93
85 81 33 5 20 46 28 49 61 84 100 100 100 100 100 100 100 100 100 100 100 100 100 100 100 100 100 100 100 100 100 100 100 100 100 100 100 100 100 100 100 97 94
0 0 1 18 19 49 100 100 100 100 100 100 100 100 100 100 100 100 100 100 100 100 100 100 100 100 100 100 100 100 100 100 100 100 100 100 100 100 100 100 100 100 100
86 56 80 100 100 100 100 100 100 100 100 100 100 100 100 100 100 100 100 100 100 100 100 100 100 100 100 100 100 100 100 100 100 100 100 100 100 100 100 100 100 100 100
100 100 100 100 100 100 100 100 100 100 100 100 100 100 100 100 100 100 100 100 100 100 100 100 100 100 100 100 100 100 100 100 100 100 100 100 100 100 100 100 100 100 100
100 100 100 100 100 100 100 100 100 100 100 100 100 100 100 100 100 100 100 100 100 100 100 100 100 100 100 100 100 100 100 100 100 100 100 100 100 100 100 100 100 100 100
100 100 100 100 100 100 100 100 100 100 100 100 100 100 100 100 100 100 100 100 100 100 100 100 100 100 100 100 100 100 100 100 100 100 100 100 100 100 100 100 100 100 100